Location: Unspecified
(0.0000°N, 0.0000°E)
Time: 21:23:42
(UTC+00:00)

TEN-KOH - Visible Passes

Search period start: 12 January 2025 00:00
Search period end: 22 January 2025 00:00
Orbit: 560 x 580 km, 98.1° (Epoch: 12 January)

Date Brightness Start Highest point End Pass type
(mag) Time Alt. Az. Time Alt. Az. Time Alt. Az.
12 Jan ? 03:50:01 10° SE 03:52:51 25° E 03:52:51 25° E visible
12 Jan ? 05:27:53 10° WSW 05:28:11 10° WSW 05:28:28 10° W visible
13 Jan ? 03:51:45 10° SE 03:54:38 27° E 03:54:38 27° E visible
14 Jan ? 03:53:29 10° SE 03:56:25 28° E 03:56:25 28° E visible
15 Jan ? 03:55:14 10° SE 03:58:12 29° E 03:58:12 29° E visible
16 Jan ? 03:56:58 10° SE 03:59:59 31° E 03:59:59 31° E visible
17 Jan ? 03:58:42 10° SE 04:01:45 32° E 04:01:45 32° E visible
18 Jan ? 04:00:27 10° SE 04:03:31 34° E 04:03:31 34° E visible
19 Jan ? 04:02:11 10° SSE 04:05:16 36° ESE 04:05:16 36° ESE visible
20 Jan ? 04:03:54 10° SSE 04:07:01 37° ESE 04:07:01 37° ESE visible
21 Jan ? 04:05:37 10° SSE 04:08:46 39° ESE 04:08:46 39° ESE visible
